Atmospheric History
02/08/2018 18:28  to  2/9/2018 18:28
Change End Date:
To complete the export process:
1) Select all of the data below
2) Copy the data to the clipboard
3) Open a word processor such as Notepad
4) Paste the data into the word processor
5) Save the file

Date/Time (MDT), AirTemp, RH, Dewpoint ,AvgWindSpeed, GustWindSpeed, WindDirection, PrecipType, PrecipIntensity, PrecipAccumulation, PrecipRate
02/09/2018 18:25, 9, 78, 4 ,4, 10, N, Yes, , ,  
02/09/2018 18:20, 9, 78, 3 ,6, 10, NW, Yes, , ,  
02/09/2018 18:10, 9, 78, 3 ,7, 12, NW, Yes, , ,  
02/09/2018 18:10, 9, 78, 3 ,6, 12, NW, Yes, , ,  
02/09/2018 18:00, 9, 76, 3 ,8, 12, NW, Yes, , ,  
02/09/2018 17:55, 9, 76, 3 ,7, 12, NW, Yes, , ,  
02/09/2018 17:50, 9, 76, 3 ,7, 13, NW, Yes, , ,  
02/09/2018 17:40, 9, 76, 3 ,8, 12, NW, None, None, ,  
02/09/2018 17:40, 9, 76, 3 ,8, 12, NW, None, None, ,  
02/09/2018 17:30, 9, 76, 3 ,9, 12, NW, None, None, ,  
02/09/2018 17:25, 9, 75, 3 ,9, 13, NW, None, None, ,  
02/09/2018 17:20, 10, 75, 3 ,9, 13, NW, Yes, , ,  
02/09/2018 17:10, 10, 75, 4 ,9, 16, NW, None, None, ,  
02/09/2018 17:10, 10, 75, 4 ,9, 16, NW, None, None, ,  
02/09/2018 17:00, 11, 75, 4 ,10, 16, NW, None, None, ,  
02/09/2018 16:56, 11, 75, 4 ,12, 16, NW, None, None, ,  
02/09/2018 16:50, 11, 75, 4 ,8, 14, NW, None, None, ,  
02/09/2018 16:40, 11, 74, 5 ,9, 13, NW, None, None, ,  
02/09/2018 16:39, 11, 75, 5 ,9, 13, NW, None, None, ,  
02/09/2018 16:29, 11, 73, 5 ,7, 12, NW, None, None, ,  
02/09/2018 16:25, 12, 73, 5 ,7, 12, NW, None, None, ,  
02/09/2018 16:19, 11, 73, 5 ,8, 12, NW, None, None, ,  
02/09/2018 16:10, 11, 73, 5 ,9, 12, NW, None, None, ,  
02/09/2018 16:09, 12, 74, 5 ,8, 12, NW, None, None, ,  
02/09/2018 15:59, 12, 73, 5 ,8, 12, NW, Yes, , ,  
02/09/2018 15:55, 13, 72, 5 ,7, 13, NW, Yes, , ,  
02/09/2018 15:49, 13, 71, 6 ,9, 13, NW, None, None, ,  
02/09/2018 15:40, 13, 72, 6 ,6, 11, NW, Yes, , ,  
02/09/2018 15:39, 13, 72, 6 ,7, 11, NW, Yes, , ,  
02/09/2018 15:29, 12, 72, 5 ,7, 12, NW, Yes, , ,  
02/09/2018 15:26, 13, 73, 6 ,7, 12, NW, Yes, , ,  
02/09/2018 15:19, 13, 72, 5 ,7, 12, NW, Yes, , ,  
02/09/2018 15:10, 13, 72, 5 ,8, 13, NW, Yes, , ,  
02/09/2018 15:09, 13, 72, 5 ,7, 13, NW, Yes, , ,  
02/09/2018 14:59, 12, 72, 5 ,9, 13, NW, None, None, ,  
02/09/2018 14:55, 13, 72, 6 ,10, 13, NW, None, None, ,  
02/09/2018 14:49, 13, 72, 5 ,10, 14, NW, None, None, ,  
02/09/2018 14:40, 13, 71, 5 ,9, 14, NW, None, None, ,  
02/09/2018 14:39, 13, 71, 5 ,9, 14, NW, None, None, ,  
02/09/2018 14:29, 12, 73, 5 ,6, 12, NW, Yes, , ,  
02/09/2018 14:25, 12, 74, 5 ,7, 12, NW, Yes, , ,  
02/09/2018 14:19, 12, 74, 5 ,7, 12, NW, Yes, , ,  
02/09/2018 14:10, 11, 73, 5 ,7, 12, NW, Yes, , ,  
02/09/2018 14:09, 11, 73, 5 ,8, 12, NW, Yes, , ,  
02/09/2018 13:59, 11, 74, 5 ,7, 12, NW, Yes, , ,  
02/09/2018 13:55, 11, 74, 5 ,7, 12, NW, Yes, , ,  
02/09/2018 13:48, 11, 74, 4 ,9, 13, NW, Yes, , ,  
02/09/2018 13:40, 11, 73, 4 ,9, 14, NW, Yes, , ,  
02/09/2018 13:38, 11, 73, 4 ,10, 14, NW, Yes, , ,  
02/09/2018 13:28, 11, 74, 4 ,10, 15, NW, Yes, , ,  
02/09/2018 13:25, 11, 74, 4 ,9, 15, NW, Yes, , ,  
02/09/2018 13:18, 11, 73, 4 ,11, 13, NW, None, None, ,  
02/09/2018 13:10, 10, 73, 3 ,9, 13, NW, Yes, , ,  
02/09/2018 13:08, 10, 73, 3 ,9, 13, NW, None, None, ,  
02/09/2018 12:58, 10, 74, 3 ,9, 15, NW, Yes, , ,  
02/09/2018 12:55, 10, 73, 3 ,9, 13, NW, None, None, ,  
02/09/2018 12:48, 10, 74, 4 ,10, 14, NW, None, None, ,  
02/09/2018 12:40, 10, 74, 4 ,11, 15, NW, None, None, ,  
02/09/2018 12:38, 10, 75, 4 ,10, 16, NW, Yes, , ,  
02/09/2018 12:28, 10, 75, 4 ,11, 14, NW, Yes, , ,  
02/09/2018 12:25, 10, 76, 4 ,10, 14, NW, Yes, , ,  
02/09/2018 12:18, 10, 76, 4 ,10, 14, NW, Yes, , ,  
02/09/2018 12:10, 11, 76, 5 ,9, 12, NW, Yes, , ,  
02/09/2018 12:08, 11, 76, 5 ,7, 12, NW, Yes, , ,  
02/09/2018 11:58, 11, 75, 5 ,7, 12, NW, Yes, , ,  
02/09/2018 11:55, 11, 75, 5 ,7, 12, NW, Yes, , ,  
02/09/2018 11:48, 12, 74, 5 ,7, 12, NW, Yes, , ,  
02/09/2018 11:40, 12, 73, 5 ,7, 12, NW, Yes, , ,  
02/09/2018 11:38, 12, 72, 5 ,6, 12, NW, Yes, , ,  
02/09/2018 11:28, 12, 73, 5 ,8, 12, NW, Yes, , ,  
02/09/2018 11:25, 12, 73, 5 ,8, 12, NW, Yes, , ,  
02/09/2018 11:18, 12, 73, 5 ,8, 12, NW, None, None, ,  
02/09/2018 11:10, 11, 73, 4 ,7, 11, NW, None, None, ,  
02/09/2018 11:08, 11, 74, 5 ,6, 11, NW, None, None, ,  
02/09/2018 10:57, 11, 74, 4 ,7, 12, NW, None, None, ,  
02/09/2018 10:55, 11, 73, 4 ,7, 12, NW, None, None, ,  
02/09/2018 10:47, 10, 73, 3 ,6, 11, NW, None, None, ,  
02/09/2018 10:40, 10, 73, 3 ,6, 12, NW, None, None, ,  
02/09/2018 10:37, 10, 73, 3 ,8, 12, NW, None, None, ,  
02/09/2018 10:27, 10, 73, 3 ,4, 8, NW, None, None, ,  
02/09/2018 10:25, 9, 73, 2 ,5, 8, NW, None, None, ,  
02/09/2018 10:17, 8, 75, 2 ,4, 7, NW, None, None, ,  
02/09/2018 10:10, 8, 76, 2 ,6, 9, NW, None, None, ,  
02/09/2018 10:07, 8, 75, 2 ,5, 9, NW, Yes, , ,  
02/09/2018 09:57, 8, 77, 2 ,6, 9, NW, Yes, , ,  
02/09/2018 09:55, 8, 78, 3 ,6, 9, NW, Yes, , ,  
02/09/2018 09:47, 8, 77, 2 ,6, 9, NW, Yes, , ,  
02/09/2018 09:40, 8, 77, 2 ,4, 12, NW, Yes, , ,  
02/09/2018 09:37, 8, 78, 2 ,6, 12, NW, Yes, , ,  
02/09/2018 09:27, 7, 80, 2 ,7, 11, NW, Yes, , ,  
02/09/2018 09:25, 7, 80, 2 ,8, 11, NW, Yes, , ,  
02/09/2018 09:17, 7, 78, 2 ,7, 11, NW, Yes, , ,  
02/09/2018 09:10, 7, 79, 2 ,7, 11, NW, Yes, , ,  
02/09/2018 09:07, 7, 80, 2 ,7, 11, NW, Yes, , ,  
02/09/2018 08:57, 7, 81, 2 ,6, 9, NW, Yes, , ,  
02/09/2018 08:55, 7, 82, 3 ,6, 10, NW, Yes, , ,  
02/09/2018 08:47, 7, 82, 3 ,6, 10, NW, Yes, , ,  
02/09/2018 08:40, 7, 82, 3 ,5, 11, NW, Yes, , ,  
02/09/2018 08:37, 8, 83, 3 ,7, 14, NW, Yes, , ,  
02/09/2018 08:26, 7, 82, 3 ,9, 13, NW, Yes, , ,  
02/09/2018 08:25, 7, 82, 3 ,9, 13, NW, Yes, , ,  
02/09/2018 08:16, 8, 83, 4 ,7, 12, NW, Yes, , ,  
02/09/2018 08:10, 7, 83, 3 ,7, 11, NW, Yes, , ,  
02/09/2018 08:06, 7, 83, 3 ,6, 11, NW, Yes, , ,  
02/09/2018 07:56, 8, 83, 4 ,8, 11, NW, Yes, , ,  
02/09/2018 07:56, 8, 83, 4 ,8, 11, NW, Yes, , ,  
02/09/2018 07:46, 8, 83, 4 ,7, 12, NW, Yes, , ,  
02/09/2018 07:40, 8, 83, 4 ,9, 12, NW, Yes, , ,  
02/09/2018 07:36, 8, 82, 4 ,7, 11, NW, Yes, , ,  
02/09/2018 07:26, 8, 81, 4 ,7, 11, NW, Yes, , ,  
02/09/2018 07:25, 8, 82, 4 ,9, 11, NW, Yes, , ,  
02/09/2018 07:16, 9, 80, 4 ,10, 16, NW, Yes, , ,  
02/09/2018 07:10, 9, 83, 4 ,9, 16, NW, Yes, , ,  
02/09/2018 07:06, 9, 82, 4 ,7, 14, NW, Yes, , ,  
02/09/2018 06:56, 9, 82, 5 ,9, 12, NW, Yes, , ,  
02/09/2018 06:56, 9, 82, 5 ,9, 12, NW, Yes, , ,  
02/09/2018 06:46, 9, 81, 5 ,7, 12, NW, Yes, , ,  
02/09/2018 06:40, 10, 79, 4 ,8, 13, NW, Yes, , ,  
02/09/2018 06:36, 10, 77, 4 ,7, 15, NW, Yes, , ,  
02/09/2018 06:26, 10, 76, 4 ,9, 14, NW, Yes, , ,  
02/09/2018 06:25, 10, 76, 4 ,9, 14, NW, Yes, , ,  
02/09/2018 06:16, 11, 75, 4 ,7, 14, NW, None, None, ,  
02/09/2018 06:11, 10, 74, 4 ,9, 14, NW, None, None, ,  
02/09/2018 06:06, 10, 75, 4 ,9, 13, NW, None, None, ,  
02/09/2018 05:55, 10, 76, 4 ,4, 9, NW, Yes, , ,  
02/09/2018 05:55, 10, 76, 4 ,4, 9, NW, Yes, , ,  
02/09/2018 05:45, 10, 75, 4 ,5, 11, NW, Yes, , ,  
02/09/2018 05:40, 10, 75, 4 ,7, 14, NW, Yes, , ,  
02/09/2018 05:35, 10, 76, 4 ,8, 14, NW, Yes, , ,  
02/09/2018 05:25, 10, 76, 4 ,6, 11, NW, None, None, ,  
02/09/2018 05:25, 10, 76, 4 ,6, 11, NW, None, None, ,  
02/09/2018 05:15, 10, 76, 4 ,9, 12, NW, None, None, ,  
02/09/2018 05:10, 10, 75, 4 ,7, 9, NW, None, None, ,  
02/09/2018 05:05, 10, 76, 4 ,4, 8, NW, None, None, ,  
02/09/2018 04:55, 10, 76, 4 ,3, 14, NW, Yes, , ,  
02/09/2018 04:55, 10, 76, 4 ,3, 14, NW, Yes, , ,  
02/09/2018 04:45, 10, 77, 4 ,9, 17, NW, Yes, , ,  
02/09/2018 04:40, 10, 77, 4 ,7, 12, NW, Yes, , ,  
02/09/2018 04:35, 10, 78, 4 ,6, 12, NW, Yes, , ,  
02/09/2018 04:25, 10, 78, 5 ,4, 12, NW, Yes, , ,  
02/09/2018 04:25, 10, 78, 5 ,4, 12, NW, Yes, , ,  
02/09/2018 04:15, 10, 78, 5 ,3, 14, NW, Yes, , ,  
02/09/2018 04:10, 10, 77, 5 ,9, 14, NW, Yes, , ,  
02/09/2018 04:05, 11, 77, 5 ,4, 16, N, Yes, , ,  
02/09/2018 03:56, 11, 78, 5 ,7, 13, NW, Yes, , ,  
02/09/2018 03:55, 11, 77, 5 ,4, 13, NW, Yes, , ,  
02/09/2018 03:45, 11, 77, 5 ,9, 15, NW, Yes, , ,  
02/09/2018 03:40, 11, 77, 5 ,7, 13, NW, Yes, , ,  
02/09/2018 03:35, 11, 77, 5 ,10, 13, NW, Yes, , ,  
02/09/2018 03:25, 11, 77, 5 ,10, 18, NW, Yes, , ,  
02/09/2018 03:24, 11, 77, 5 ,12, 18, NW, Yes, , ,  
02/09/2018 03:14, 11, 78, 6 ,11, 16, NW, Yes, , ,  
02/09/2018 03:10, 11, 78, 6 ,10, 14, NW, Yes, , ,  
02/09/2018 03:04, 11, 78, 6 ,9, 16, NW, Yes, , ,  
02/09/2018 02:55, 12, 78, 6 ,11, 17, NW, None, None, ,  
02/09/2018 02:54, 12, 79, 7 ,12, 17, NW, None, None, ,  
02/09/2018 02:44, 12, 79, 7 ,9, 14, NW, None, None, ,  
02/09/2018 02:40, 13, 80, 8 ,9, 15, NW, Yes, , ,  
02/09/2018 02:34, 12, 80, 7 ,6, 11, NW, Yes, , ,  
02/09/2018 02:25, 13, 80, 8 ,9, 14, NW, Yes, , ,  
02/09/2018 02:24, 13, 80, 8 ,7, 14, NW, Yes, , ,  
02/09/2018 02:14, 14, 80, 9 ,10, 13, NW, Yes, , ,  
02/09/2018 02:10, 14, 80, 9 ,9, 14, NW, Yes, , ,  
02/09/2018 02:04, 14, 80, 9 ,8, 14, NW, Yes, , ,  
02/09/2018 01:55, 15, 81, 10 ,7, 12, NW, Yes, , ,  
02/09/2018 01:54, 15, 81, 10 ,7, 12, NW, None, None, ,  
02/09/2018 01:44, 14, 81, 10 ,7, 9, NW, None, None, ,  
02/09/2018 01:40, 14, 81, 10 ,6, 9, NW, Yes, , ,  
02/09/2018 01:34, 15, 82, 10 ,5, 13, NW, Yes, , ,  
02/09/2018 01:25, 15, 81, 10 ,9, 13, NW, Yes, , ,  
02/09/2018 01:24, 15, 81, 10 ,7, 11, NW, Yes, , ,  
02/09/2018 01:14, 15, 81, 10 ,7, 13, NW, Yes, , ,  
02/09/2018 01:10, 15, 81, 10 ,10, 13, NW, None, None, ,  
02/09/2018 01:04, 15, 81, 11 ,8, 14, NW, Yes, , ,  
02/09/2018 00:55, 16, 82, 11 ,9, 12, NW, Yes, , ,  
02/09/2018 00:53, 16, 82, 12 ,7, 12, NW, Yes, , ,  
02/09/2018 00:43, 17, 83, 12 ,7, 11, NW, Yes, , ,  
02/09/2018 00:41, 17, 83, 12 ,7, 12, NW, Yes, , ,  
02/09/2018 00:33, 17, 83, 12 ,8, 13, NW, Yes, , ,  
02/09/2018 00:25, 17, 83, 13 ,7, 10, NW, Yes, , ,  
02/09/2018 00:23, 17, 83, 13 ,7, 10, NW, Yes, , ,  
02/09/2018 00:13, 17, 83, 13 ,7, 11, NW, Yes, , ,  
02/09/2018 00:10, 17, 83, 13 ,6, 11, NW, Yes, , ,  
02/09/2018 00:03, 17, 83, 13 ,8, 11, NW, None, None, ,  
02/08/2018 23:55, 17, 83, 13 ,6, 11, NW, Yes, , ,  
02/08/2018 23:53, 17, 83, 13 ,7, 11, NW, Yes, , ,  
02/08/2018 23:43, 17, 83, 13 ,6, 11, N, None, None, ,  
02/08/2018 23:40, 18, 83, 13 ,7, 11, NW, None, None, ,  
02/08/2018 23:33, 18, 84, 13 ,6, 11, NW, Yes, , ,  
02/08/2018 23:25, 18, 83, 14 ,7, 11, NW, None, None, ,  
02/08/2018 23:23, 18, 84, 14 ,7, 11, NW, None, None, ,  
02/08/2018 23:13, 18, 84, 14 ,9, 11, NW, None, None, ,  
02/08/2018 23:10, 18, 84, 14 ,6, 12, NW, None, None, ,  
02/08/2018 23:03, 18, 84, 14 ,7, 12, NW, None, None, ,  
02/08/2018 22:55, 18, 85, 14 ,9, 14, NW, None, None, ,  
02/08/2018 22:53, 18, 84, 14 ,9, 14, NW, Yes, , ,  
02/08/2018 22:43, 18, 84, 14 ,9, 14, NW, None, None, ,  
02/08/2018 22:41, 18, 84, 14 ,10, 16, NW, None, None, ,  
02/08/2018 22:33, 19, 84, 15 ,10, 16, NW, None, None, ,  
02/08/2018 22:25, 19, 84, 15 ,10, 15, NW, None, None, ,  
02/08/2018 22:23, 19, 83, 15 ,9, 15, NW, None, None, ,  
02/08/2018 22:12, 19, 83, 15 ,9, 13, NW, None, None, ,  
02/08/2018 22:10, 19, 83, 15 ,10, 13, NW, None, None, ,  
02/08/2018 22:02, 20, 83, 15 ,9, 13, NW, None, None, ,  
02/08/2018 21:55, 20, 82, 16 ,10, 13, NW, None, None, ,  
02/08/2018 21:52, 20, 82, 16 ,10, 12, NW, None, None, ,  
02/08/2018 21:42, 21, 82, 16 ,9, 14, NW, None, None, ,  
02/08/2018 21:40, 21, 82, 17 ,8, 14, NW, None, None, ,  
02/08/2018 21:32, 22, 81, 17 ,10, 15, NW, None, None, ,  
02/08/2018 21:25, 22, 80, 17 ,11, 16, NW, None, None, ,  
02/08/2018 21:22, 22, 80, 17 ,11, 15, NW, None, None, ,  
02/08/2018 21:12, 23, 80, 17 ,11, 18, NW, None, None, ,  
02/08/2018 21:10, 23, 79, 17 ,10, 18, NW, None, None, ,  
02/08/2018 21:02, 24, 78, 18 ,9, 14, NW, None, None, ,  
02/08/2018 20:55, 24, 78, 19 ,10, 16, NW, None, None, ,  
02/08/2018 20:52, 25, 78, 19 ,9, 16, NW, None, None, ,  
02/08/2018 20:42, 25, 77, 19 ,10, 19, NW, None, None, ,  
02/08/2018 20:40, 25, 77, 19 ,7, 19, NW, None, None, ,  
02/08/2018 20:32, 26, 75, 19 ,13, 20, NW, None, None, ,  
02/08/2018 20:25, 26, 74, 19 ,12, 19, NW, None, None, ,  
02/08/2018 20:22, 27, 74, 20 ,13, 19, NW, None, None, ,  
02/08/2018 20:12, 27, 73, 20 ,12, 21, NW, None, None, ,  
02/08/2018 20:10, 28, 72, 20 ,12, 21, NW, None, None, ,  
02/08/2018 20:02, 28, 71, 20 ,12, 19, NW, None, None, ,  
02/08/2018 19:55, 29, 70, 21 ,12, 19, NW, None, None, ,  
02/08/2018 19:52, 29, 70, 21 ,11, 19, NW, None, None, ,  
02/08/2018 19:42, 32, 64, 22 ,12, 16, NW, None, None, ,  
02/08/2018 19:40, 33, 64, 22 ,12, 16, NW, None, None, ,  
02/08/2018 19:31, 36, 58, 22 ,9, 12, NW, None, None, ,  
02/08/2018 19:25, 38, 55, 23 ,7, 10, NW, None, None, ,  
02/08/2018 19:21, 38, 54, 23 ,7, 9, NW, None, None, ,  
02/08/2018 19:11, 39, 53, 24 ,2, 6, NE, None, None, ,  
02/08/2018 19:10, 39, 55, 24 ,1, 6, N, None, None, ,  
02/08/2018 19:01, 39, 56, 25 ,2, 7, SE, None, None, ,  
02/08/2018 18:55, 40, 54, 24 ,4, 7, E, None, None, ,  
02/08/2018 18:51, 42, 48, 24 ,0, 15, SW, None, None, ,  
02/08/2018 18:41, 41, 48, 24 ,1, 16, SE, None, None, ,  
02/08/2018 18:40, 42, 48, 24 ,1, 16, NW, None, None, ,  
02/08/2018 18:31, 41, 52, 24 ,2, 6, N, None, None, ,  
Change End Date:

Copyright © 1998-2015 Vaisala, Inc.
All Rights Reserved
Send comments about the data to:
SCAN Web ® is a registered trademark of Vaisala, Inc.
SCAN Web Version 6.0